Hourly Data Report for December 07, 2021

CARBERRY CS
MANITOBA
Current Station Operator: ECCC - MSC

49°54'20.900" N
99°21'26.800" W
383.50 m
5010547
71170
WZE

Download Data

Hourly Data (December 2021)
Hourly Data Report for December 7, 2021
TIME
LST
Temp Definition
°C
Dew Point Definition
°C
Rel Hum Definition
%
Precip. Amount Definition
mm

Wind Dir Definition
10's deg

Wind Spd Definition
km/h
Visibility Definition
km
Stn Press Definition
kPa
Hmdx Definition


Wind Chill Definition


Weather Definition


00:00 -20.8 -23.2 81 0.0 25 9   97.05   -28 LegendNANA
01:00 -23.0 -25.3 82 0.0 26 12   97.00   -32 LegendNANA
02:00 -23.4 -25.8 81 0.0 27 8   96.97   -30 LegendNANA
03:00 -22.4 -24.6 82 0.0 23 9   96.95   -30 LegendNANA
04:00 -22.8 -25.1 82 0.0 22 9   96.93   -30 LegendNANA
05:00 -22.9 -25.1 82 0.0 21 10   96.86   -31 LegendNANA
06:00 -23.4 -25.8 81 0.0 21 10   96.80   -31 LegendNANA
07:00 -23.9 -26.3 81 0.0 21 6   96.73   -30 LegendNANA
08:00 -23.7 -26.1 81 0.0 22 8   96.68   -31 LegendNANA
09:00 -22.4 -24.7 82 0.0 24 8   96.63   -29 LegendNANA
10:00 -20.9 -23.3 81 0.0 20 8   96.64   -27 LegendNANA
11:00 -17.4 -19.6 83 0.0 22 8   96.60   -23 LegendNANA
12:00 -15.1 -17.2 84 0.0 25 10   96.55   -21 LegendNANA
13:00 -12.8 -15.9 78 0.0 24 14   96.46   -20 LegendNANA
14:00 -11.9 -15.5 74 0.0 24 14   96.34   -19 LegendNANA
15:00 -12.3 -15.9 74 0.0 26 18   96.34   -20 LegendNANA
16:00 -14.1 -17.0 78 0.0 26 11   96.39   -21 LegendNANA
17:00 -16.7 -18.6 85 0.0 30 10   96.41   -23 LegendNANA
18:00 -17.2 -19.5 82 0.0 26 12   96.42   -25 LegendNANA
19:00 -17.9 -20.1 83 0.0 28 14   96.46   -26 LegendNANA
20:00 -18.3 -20.4 83 0.0 32 7   96.51   -24 LegendNANA
21:00 -18.9 -20.7 86 0.0 35 5   96.55   -23 LegendNANA
22:00 -19.3 -21.3 84 0.0 1 3   96.57   -22 LegendNANA
23:00 -21.7 -23.8 83 0.0 35 3   96.60   -24 LegendNANA

Notes on Data Quality.

Legend

  • E = Estimated
  • M = Missing
  • NA = Not Available*
  • [empty] = Indicates an unobserved value
Date modified: